Home   Weather   Bandar Seri Begawan   Past weeks
Flag for Brunei

Past Weather in Bandar Seri Begawan, Brunei — Yesterday and Last 2 Weeks

Now
82 °F

Thunderstorms. Partly cloudy.


Feels Like: 91 °F
Forecast: 86 / 78 °F
Wind: 3 mph from Southwest

Location: Brunei Airport

Current Time: Jun 5, 2020 at 9:32:23 pm

Latest Report: Jun 5, 2020 at 9:00 pm


Visibility: N/A

Pressure: 29.83 "Hg

Humidity: 84%

Dew Point: 77 °F

Location of Bandar Seri BegawanLocation

Past Weather in Bandar Seri Begawan — Graph

°F

Bandar Seri Begawan Temperature Yesterday

Maximum temperature yesterday: 91 °F (at 2:30 pm)
Minimum temperature yesterday: 79 °F (at 5:00 am)
Average temperature yesterday: 85 °F

High & Low Weather Summary for the Past Weeks

 TemperatureHumidityPressure
High93 °F (May 23, 3:00 pm)100% (May 22, 3:30 am)29.95 "Hg (May 22, 3:30 am)
Low73 °F (Jun 5, 3:30 am)59% (May 22, 1:00 pm)29.74 "Hg (May 22, 3:00 pm)
Average84 °F81%29.85 "Hg
* Reported May 21 8:00 pm — Jun 5 8:00 pm, Bandar Seri Begawan. Weather by CustomWeather, © 2020

Note: Actual official high and low records may vary slightly from our data, if they occured in-between our weather recording intervals... More about our weather records

Bandar Seri Begawan Weather History for the Previous 24 Hours

Scroll right to see more
 ConditionsComfort  
Time TempWeatherWind HumidityBarometerVisibility
8:00 pm
Fri, Jun 5
82 °FPassing clouds.2 mph84%29.80 "HgN/A
7:30 pm82 °FPassing clouds.1 mph84%29.80 "HgN/A
7:00 pm82 °FPassing clouds.2 mph84%29.80 "HgN/A
6:30 pm82 °FPassing clouds.3 mph84%29.77 "HgN/A
6:00 pm84 °FBroken clouds.2 mph79%29.77 "HgN/A
5:30 pm84 °FBroken clouds.6 mph79%29.77 "HgN/A
5:00 pm84 °FBroken clouds.6 mph79%29.77 "HgN/A
4:30 pm84 °FBroken clouds.6 mph84%29.77 "HgN/A
4:00 pm84 °FBroken clouds.7 mph84%29.77 "HgN/A
3:30 pm84 °FBroken clouds.6 mph79%29.77 "HgN/A
3:00 pm84 °FBroken clouds.8 mph79%29.77 "HgN/A
2:30 pm86 °FBroken clouds.9 mph79%29.80 "HgN/A
2:00 pm86 °FBroken clouds.8 mph79%29.80 "HgN/A
1:30 pm86 °FBroken clouds.6 mph79%29.80 "HgN/A
1:00 pm88 °FBroken clouds.5 mph75%29.83 "HgN/A
12:30 pm88 °FBroken clouds.3 mph75%29.83 "HgN/A
12:00 pm86 °FBroken clouds.3 mph79%29.86 "HgN/A
11:30 am86 °FBroken clouds.2 mph79%29.86 "HgN/A
11:00 am84 °FThunderstorms. Partly sunny.3 mph79%29.86 "HgN/A
10:30 am82 °FThunderstorms. Partly sunny.5 mph84%29.86 "HgN/A
10:00 am81 °FThunderstorms. Partly sunny.6 mph94%29.86 "HgN/A
9:30 am79 °FThunderstorms. Partly sunny.3 mph94%29.86 "HgN/A
9:00 am79 °FLight rain. Partly sunny.5 mph94%29.89 "HgN/A
8:30 am79 °FLight rain. Partly sunny.3 mph94%29.86 "HgN/A
8:00 am77 °FLight rain. Partly sunny.1 mph94%29.86 "Hg6 mi
7:30 am77 °FLight rain. Partly sunny.2 mph94%29.86 "Hg5 mi
7:00 am77 °FLight rain. Partly sunny.1 mph94%29.83 "Hg5 mi
6:30 am75 °FThunderstorms. Partly sunny.3 mph94%29.83 "Hg5 mi
6:00 am73 °FStrong thunderstorms. Partly cloudy.10 mph100%29.83 "Hg1 mi
5:30 am73 °FThunderstorms. Passing clouds.1 mph100%29.83 "Hg5 mi
5:00 am73 °FThunderstorms. Passing clouds.2 mph100%29.80 "Hg5 mi
4:30 am75 °FThunderstorms. Passing clouds.5 mph94%29.80 "Hg5 mi
4:00 am75 °FThunderstorms. Passing clouds.1 mph89%29.80 "Hg5 mi
3:30 am73 °FThunderstorms. Passing clouds.5 mph94%29.80 "Hg5 mi
3:00 am75 °FThunderstorms. Partly cloudy.22 mph94%29.80 "Hg2 mi
2:30 am79 °FThunderstorms. Partly cloudy.15 mph89%29.83 "Hg3 mi
2:00 am81 °FThunderstorms. Passing clouds.7 mph89%29.83 "HgN/A
1:30 am81 °FThunderstorms. Passing clouds.5 mph84%29.83 "HgN/A
1:00 am81 °FPassing clouds.6 mph84%29.83 "HgN/A
12:30 am84 °FPartly cloudy.3 mph79%29.83 "HgN/A
12:00 am84 °FPartly cloudy.3 mph79%29.86 "HgN/A
11:30 pm
Thu, Jun 4
82 °FPartly cloudy.7 mph84%29.86 "HgN/A
11:00 pm82 °FPartly cloudy.7 mph84%29.86 "HgN/A
10:30 pm84 °FPartly cloudy.7 mph79%29.83 "HgN/A
10:00 pm84 °FPartly cloudy.5 mph79%29.83 "HgN/A
9:30 pm84 °FPassing clouds.2 mph84%29.83 "HgN/A
9:00 pm86 °FPassing clouds.2 mph79%29.80 "HgN/A
Weather by CustomWeather, © 2020

See weather overview

Advertising